When you browse on this site, cookies collect data to enhance your experience and personalize the content and advertising you see.
Visit our Privacy Policy to learn more. By continuing to use the site, you agree to this use of cookies and data.
  • In Hungary
  • List of Countries
  • For 7 days
  • Water Temperature
  • Satellite Maps
  • Weather Map
  • News
  • Weather Widgets
  • user-avatar
    Login

    Hourly Weather Huangyan

    Today, 15 December, Saturday

    Time Temperature Precipitation Wind Pressure Humidity
    00:00 +8°C° 0 mm 2 mps 770 mmHg 86%
    01:00 +8°C° 0 mm 2 mps 770 mmHg 87%
    02:00 +8°C° 0 mm 2 mps 770 mmHg 87%
    03:00 +8°C° 0.1 mm 2 mps 770 mmHg 88%
    04:00 +8°C° 0.1 mm 2 mps 769 mmHg 88%
    05:00 +8°C° 0.1 mm 2 mps 769 mmHg 89%
    06:00 +8°C° 0 mm 2 mps 769 mmHg 89%
    07:00 +9°C° 0 mm 2 mps 769 mmHg 89%
    08:00 +9°C° 0 mm 2 mps 769 mmHg 87%
    09:00 +9°C° 0 mm 2 mps 769 mmHg 86%
    10:00 +10°C° 0 mm 2 mps 769 mmHg 86%
    11:00 +12°C° 0 mm 2 mps 768 mmHg 86%
    12:00 +12°C° 0.1 mm 2 mps 768 mmHg 85%
    13:00 +13°C° 0.1 mm 1 mps 767 mmHg 84%
    14:00 +13°C° 0 mm 2 mps 767 mmHg 85%
    15:00 +12°C° 0.3 mm 1 mps 766 mmHg 88%
    16:00 +12°C° 0.3 mm 1 mps 766 mmHg 91%
    17:00 +12°C° 0.3 mm 1 mps 766 mmHg 94%
    18:00 +12°C° 0.2 mm 1 mps 766 mmHg 95%
    19:00 +12°C° 0.2 mm 1 mps 766 mmHg 95%
    20:00 +12°C° 0.2 mm 1 mps 765 mmHg 95%
    21:00 +12°C° 0.2 mm 1 mps 765 mmHg 95%
    22:00 +12°C° 0.2 mm 1 mps 765 mmHg 95%
    23:00 +12°C° 0.2 mm 1 mps 765 mmHg 95%

    Tomorrow, 16 December, Sunday

    Time Temperature Precipitation Wind Pressure Humidity
    00:00 +12°C° 0.2 mm 1 mps 765 mmHg 95%
    01:00 +12°C° 0.2 mm 1 mps 765 mmHg 95%
    02:00 +12°C° 0.2 mm 1 mps 764 mmHg 95%
    03:00 +12°C° 0.1 mm 2 mps 764 mmHg 94%
    04:00 +12°C° 0.1 mm 2 mps 764 mmHg 94%
    05:00 +12°C° 0.1 mm 2 mps 764 mmHg 94%
    06:00 +12°C° 0.1 mm 2 mps 764 mmHg 93%
    07:00 +11°C° 0.1 mm 3 mps 764 mmHg 92%
    08:00 +12°C° 0.1 mm 3 mps 765 mmHg 91%
    09:00 +12°C° 0 mm 3 mps 765 mmHg 86%
    10:00 +12°C° 0 mm 4 mps 765 mmHg 81%
    11:00 +13°C° 0 mm 4 mps 765 mmHg 77%
    12:00 +13°C° 0 mm 4 mps 765 mmHg 73%
    13:00 +13°C° 0 mm 4 mps 764 mmHg 69%
    14:00 +14°C° 0 mm 4 mps 764 mmHg 65%
    15:00 +13°C° 0 mm 4 mps 764 mmHg 68%
    16:00 +12°C° 0 mm 4 mps 764 mmHg 71%
    17:00 +11°C° 0 mm 3 mps 764 mmHg 74%
    18:00 +10°C° 0 mm 3 mps 764 mmHg 76%
    19:00 +9°C° 0 mm 3 mps 765 mmHg 78%
    20:00 +8°C° 0 mm 3 mps 765 mmHg 81%
    21:00 +8°C° 0 mm 3 mps 765 mmHg 81%
    22:00 +7°C° 0 mm 3 mps 765 mmHg 81%
    23:00 +7°C° 0 mm 2 mps 765 mmHg 81%

    Day after tomorrow, 17 December, Monday

    Time Temperature Precipitation Wind Pressure Humidity
    00:00 +7°C° 0 mm 3 mps 765 mmHg 81%
    01:00 +5°C° 0 mm 3 mps 765 mmHg 80%
    02:00 +5°C° 0 mm 3 mps 766 mmHg 80%
    03:00 +5°C° 0 mm 3 mps 766 mmHg 80%
    04:00 +5°C° 0 mm 3 mps 766 mmHg 79%
    05:00 +4°C° 0 mm 3 mps 766 mmHg 79%
    06:00 +5°C° 0 mm 3 mps 766 mmHg 77%
    07:00 +5°C° 0 mm 3 mps 767 mmHg 74%
    08:00 +7°C° 0 mm 3 mps 767 mmHg 72%
    09:00 +9°C° 0 mm 3 mps 767 mmHg 62%
    10:00 +11°C° 0 mm 3 mps 767 mmHg 51%
    11:00 +14°C° 0 mm 3 mps 767 mmHg 40%
    12:00 +14°C° 0 mm 3 mps 766 mmHg 38%
    13:00 +16°C° 0 mm 3 mps 766 mmHg 37%
    14:00 +16°C° 0 mm 3 mps 765 mmHg 35%
    15:00 +15°C° 0 mm 2 mps 765 mmHg 41%
    16:00 +13°C° 0 mm 2 mps 765 mmHg 47%
    17:00 +12°C° 0 mm 2 mps 765 mmHg 53%
    18:00 +10°C° 0 mm 2 mps 766 mmHg 56%
    19:00 +9°C° 0 mm 2 mps 766 mmHg 59%
    20:00 +8°C° 0 mm 2 mps 767 mmHg 62%
    21:00 +7°C° 0 mm 2 mps 766 mmHg 63%
    22:00 +7°C° 0 mm 2 mps 766 mmHg 64%
    23:00 +7°C° 0 mm 2 mps 766 mmHg 64%

    18 December, Tuesday

    Time Temperature Precipitation Wind Pressure Humidity
    00:00 +6°C° 0 mm 2 mps 766 mmHg 64%
    01:00 +7°C° 0 mm 1 mps 766 mmHg 64%
    02:00 +7°C° 0 mm 1 mps 766 mmHg 64%
    03:00 +7°C° 0 mm 1 mps 766 mmHg 64%
    04:00 +6°C° 0 mm 1 mps 765 mmHg 63%
    05:00 +6°C° 0 mm 1 mps 765 mmHg 63%
    06:00 +7°C° 0 mm 1 mps 766 mmHg 61%
    07:00 +8°C° 0 mm 1 mps 766 mmHg 59%
    08:00 +9°C° 0 mm 1 mps 766 mmHg 57%
    09:00 +11°C° 0 mm 1 mps 766 mmHg 51%
    10:00 +14°C° 0 mm 1 mps 766 mmHg 45%
    11:00 +16°C° 0 mm 0 mps 766 mmHg 39%
    12:00 +18°C° 0 mm 1 mps 766 mmHg 38%
    13:00 +19°C° 0 mm 1 mps 765 mmHg 37%
    14:00 +19°C° 0 mm 1 mps 764 mmHg 36%
    15:00 +16°C° 0 mm 1 mps 764 mmHg 44%
    16:00 +15°C° 0 mm 1 mps 764 mmHg 52%
    17:00 +13°C° 0 mm 1 mps 765 mmHg 60%
    18:00 +12°C° 0 mm 1 mps 765 mmHg 64%
    19:00 +11°C° 0 mm 1 mps 765 mmHg 69%
    20:00 +10°C° 0 mm 1 mps 766 mmHg 74%
    21:00 +10°C° 0 mm 1 mps 766 mmHg 76%
    22:00 +10°C° 0 mm 1 mps 766 mmHg 78%
    23:00 +9°C° 0 mm 1 mps 766 mmHg 80%

    19 December, Wednesday

    Time Temperature Precipitation Wind Pressure Humidity
    00:00 +9°C° 0 mm 1 mps 765 mmHg 81%
    01:00 +9°C° 0 mm 1 mps 765 mmHg 81%
    02:00 +9°C° 0 mm 1 mps 765 mmHg 82%
    03:00 +10°C° 0 mm 1 mps 765 mmHg 80%
    04:00 +10°C° 0 mm 1 mps 765 mmHg 78%
    05:00 +10°C° 0 mm 1 mps 764 mmHg 76%
    06:00 +11°C° 0 mm 1 mps 765 mmHg 75%
    07:00 +11°C° 0 mm 1 mps 765 mmHg 74%
    08:00 +12°C° 0 mm 1 mps 765 mmHg 73%
    09:00 +13°C° 0 mm 1 mps 765 mmHg 71%
    10:00 +14°C° 0 mm 1 mps 765 mmHg 68%
    11:00 +15°C° 0 mm 2 mps 765 mmHg 66%
    12:00 +15°C° 0 mm 2 mps 764 mmHg 67%
    13:00 +15°C° 0 mm 1 mps 763 mmHg 68%
    14:00 +15°C° 0 mm 1 mps 762 mmHg 70%
    15:00 +14°C° 0 mm 1 mps 762 mmHg 72%
    16:00 +14°C° 0 mm 1 mps 762 mmHg 73%
    17:00 +14°C° 0 mm 1 mps 762 mmHg 75%
    18:00 +14°C° 0 mm 1 mps 762 mmHg 77%
    19:00 +14°C° 0 mm 1 mps 763 mmHg 79%
    20:00 +14°C° 0 mm 1 mps 763 mmHg 81%
    21:00 +14°C° 0 mm 1 mps 763 mmHg 82%
    22:00 +14°C° 0 mm 1 mps 762 mmHg 83%
    23:00 +14°C° 0 mm 1 mps 762 mmHg 85%

    20 December, Thursday

    Time Temperature Precipitation Wind Pressure Humidity
    00:00 +14°C° 0 mm 1 mps 762 mmHg 86%
    01:00 +14°C° 0 mm 1 mps 761 mmHg 87%
    02:00 +14°C° 0 mm 1 mps 761 mmHg 88%
    03:00 +14°C° 0.2 mm 1 mps 761 mmHg 89%
    04:00 +14°C° 0.2 mm 1 mps 760 mmHg 91%
    05:00 +14°C° 0.2 mm 1 mps 760 mmHg 92%
    06:00 +15°C° 0.2 mm 1 mps 760 mmHg 93%
    07:00 +15°C° 0.2 mm 1 mps 760 mmHg 94%
    08:00 +15°C° 0.2 mm 1 mps 760 mmHg 95%
    09:00 +16°C° 0.1 mm 1 mps 760 mmHg 92%
    10:00 +19°C° 0.1 mm 1 mps 760 mmHg 89%
    11:00 +20°C° 0.1 mm 1 mps 760 mmHg 87%
    12:00 +21°C° 0 mm 1 mps 759 mmHg 83%
    13:00 +22°C° 0 mm 1 mps 759 mmHg 80%
    14:00 +23°C° 0 mm 1 mps 758 mmHg 77%
    15:00 +21°C° 0.1 mm 1 mps 758 mmHg 82%
    16:00 +20°C° 0.1 mm 1 mps 758 mmHg 87%
    17:00 +19°C° 0.1 mm 1 mps 758 mmHg 92%
    18:00 +19°C° 0 mm 1 mps 759 mmHg 94%
    19:00 +18°C° 0 mm 1 mps 759 mmHg 95%
    20:00 +18°C° 0 mm 1 mps 760 mmHg 96%
    21:00 +16°C° 0 mm 1 mps 760 mmHg 96%
    22:00 +16°C° 0 mm 1 mps 759 mmHg 96%
    23:00 +15°C° 0 mm 0 mps 759 mmHg 96%
    Show more